Location: Bisarina
(45.0833°N, 11.0333°E)
Time: 22:27:42
(UTC+00:00)

Daily predictions for brighter satellites

Satellite Brightness Start Highest point End
(mag) Time Altitude Azimuth Time Altitude Azimuth Time Altitude Azimuth
Cosmos 1844 Rocket 3.1 16:41:29 10° SW 16:47:06 68° WNW 16:52:45 10° NNE
CZ-4 R/B 2.3 16:45:27 10° SE 16:49:07 30° ENE 16:52:49 10° N
COSMOS 2406 3.3 16:44:03 10° NNW 16:49:48 62° ENE 16:55:28 10° SE
Cosmos 1934 Rocket 4.2 16:43:52 10° N 16:50:06 55° ENE 16:56:19 10° SSE
SL-4 R/B 4.4 16:48:24 10° W 16:51:33 23° SW 16:54:30 10° S
Cosmos 1703 3.8 16:48:46 10° N 16:52:25 35° ENE 16:56:01 10° SE
Cosmos 292 Rocket 3.9 16:49:04 10° S 16:53:41 53° ESE 16:58:19 10° NNE
CZ-4C R/B 4.4 16:48:53 10° NW 16:55:48 43° WSW 17:03:26 10° S
Nadezhda 3 Rocket 4.2 16:50:04 10° S 16:56:22 86° W 17:02:46 10° N
Cosmos 1606 Rocket 3.7 16:52:09 10° S 16:56:32 82° W 17:00:55 10° N
BREEZE M DEB (TANK) 1.8 16:54:51 10° WNW 16:56:59 58° NNE 17:01:07 10° ESE
NOAA 12 4.1 16:54:33 10° SSE 16:59:49 77° ENE 17:05:09 10° N
Cosmos 1777 Rocket 4.2 16:55:09 10° NNW 17:00:12 48° ENE 17:05:13 10° SE
Unknown 3.7 16:57:46 10° WNW 17:00:17 41° SW 17:02:49 10° SSE
Cosmos 839 Rocket 4.1 16:54:33 10° NNW 17:00:47 75° NE 17:07:51 10° SE
Cosmos 1535 Rocket 4.5 16:55:05 10° N 17:01:16 66° E 17:07:20 10° SSE
Gbstr 26 Del rocket 4.1 16:55:42 10° WNW 17:01:27 62° NNE 17:08:32 10° ESE
Cosmos 1242 Rocket 2.5 17:01:16 10° N 17:04:58 71° ENE 17:08:38 10° SSE
SMAP 4.0 17:01:05 10° S 17:05:37 54° W 17:10:12 10° NNW
EO 1 Delta rocket 4.5 17:02:49 10° SE 17:06:59 35° ENE 17:11:30 10° N
ATLAS 5 CENTAUR R/B 3.5 17:05:10 10° W 17:08:53 26° NW 17:13:01 10° NNE
Meteor 1-16 Rocket 4.1 17:05:30 10° S 17:11:02 84° E 17:16:27 10° NNE
Cosmos 1908 3.4 17:10:35 10° S 17:14:21 49° E 17:18:07 10° NNE
CZ-4 R/B 4.5 17:10:55 10° SSE 17:14:56 58° ENE 17:19:00 10° N
Cosmos 1953 3.9 17:11:20 10° SSW 17:15:09 40° WNW 17:19:01 10° N
FengYun 1-2 T 4.2 17:10:29 10° SSE 17:16:04 67° ENE 17:21:38 10° N
Cosmos 2278 Rocket 2.3 17:10:49 10° S 17:16:18 54° ESE 17:21:50 10° NE
Meteor 1-11 4.3 17:11:32 10° N 17:17:18 64° ENE 17:23:03 10° SSE
ASTEX 1 3.4 17:13:07 10° N 17:18:06 72° E 17:23:04 10° S
Cosmos 1726 2.1 17:19:28 10° S 17:23:07 82° W 17:26:47 10° N
Abrixas rocket 1.9 17:23:12 10° WSW 17:26:16 85° SSE 17:28:08 21° ENE
SKYMED 2 3.5 17:22:12 10° NNE 17:26:34 77° ESE 17:30:54 10° S
Unknown 3.7 17:23:53 10° NW 17:27:09 42° NNE 17:29:01 21° E
YAOGAN 1 2.6 17:23:13 10° SSE 17:27:28 58° ENE 17:31:44 10° N
ATLAS 3B R/B 3.8 17:26:03 10° SSE 17:30:33 19° ESE 17:32:24 17° E
Cosmos 2228 4.5 17:26:49 10° SSW 17:30:56 41° WNW 17:35:04 10° N
CSL-04 Rocket 3.7 17:25:53 10° SSE 17:31:22 69° ENE 17:36:50 10° N
Cosmos 2058 4.1 17:28:22 10° NNE 17:31:42 22° ENE 17:32:43 20° E
FALCON 9 DEB 3.8 17:29:16 10° NW 17:32:35 41° NNE 17:34:14 24° E
H-2A R/B 3.7 17:33:28 15° ENE 17:33:51 15° ENE 17:36:47 10° NNE
Lacrosse 5 2.1 17:30:45 10° NW 17:35:44 54° NE 17:39:02 20° ESE
Envisat 3.4 17:30:59 10° S 17:36:02 67° WSW 17:41:07 10° NNW
CENTAUR R/B 3.5 17:35:10 10° SSE 17:39:31 22° ESE 17:40:48 20° E
Shenzhou-11 Module 2.9 17:38:13 10° W 17:40:49 36° SSW 17:41:55 25° SE
Cosmos 1153 Rocket 4.4 17:37:40 10° N 17:43:45 60° ENE 17:49:48 10° SSE
Unknown 3.7 17:42:20 10° NW 17:45:44 43° NNE 17:46:48 33° ENE
Unknown 3.8 17:43:17 10° WNW 17:46:17 45° SW 17:48:12 19° SSE
NOAA 11 4.2 17:41:10 10° SSE 17:46:28 56° ENE 17:51:46 10° N
Falcon 9 debris 3.3 17:45:14 10° NW 17:48:39 55° NNE 17:49:38 38° E
Cosmos 1833 Rocket 2.6 17:45:59 10° NNW 17:51:38 88° ENE 17:57:16 10° SSE
IRS-1A Rocket 4.4 17:46:38 10° SE 17:51:51 47° ENE 17:57:08 10° N
YAOGAN 6 3.5 17:50:56 10° S 17:54:29 50° W 17:58:02 10° NNW
Cosmos 1939 Rocket 2.8 17:51:03 10° SSE 17:54:57 59° ENE 17:58:58 10° N
USA 116 3.5 17:54:56 10° N 17:58:08 71° WNW 18:01:35 10° SSW
DMSP B5D1-3 4.4 17:55:31 10° NNE 18:00:39 71° ESE 18:05:47 10° S
USA 238 DEB 3.6 17:54:40 10° SSW 18:01:19 76° SE 18:08:11 10° NE
USA 238 3.6 17:54:46 10° SSW 18:01:26 76° SE 18:08:16 10° NE
CZ-2D R/B 3.2 18:03:01 10° SSE 18:06:52 89° WNW 18:10:46 10° NNW
Unknown 3.1 18:04:18 10° NW 18:07:48 65° NNE 18:08:00 63° NE
Cosmos 1300 2.5 18:04:37 10° S 18:08:25 69° E 18:12:14 10° NNE
SJ 16-02 2.8 18:08:13 10° N 18:10:33 22° NNE 18:10:33 22° NNE
COSMO-SKYMED 1 4.3 18:10:36 10° N 18:14:32 34° WNW 18:18:26 10° SW
Cosmos 1461 3.5 18:11:14 10° NW 18:15:15 53° WSW 18:17:48 21° S
Cosmos 2061 Rocket 4.2 18:11:15 10° N 18:17:16 47° ENE 18:19:06 37° ESE
Ariane Rocket 2.9 18:13:31 10° SSE 18:18:37 87° ENE 18:23:45 10° NNW
Cosmos 2082 Rocket 2.2 18:14:36 10° NNW 18:20:20 81° WSW 18:24:36 18° SSE
Cosmos 1459 Rocket 3.9 18:15:41 10° N 18:21:54 68° E 18:27:50 12° SSE
CZ-4 R/B 3.7 18:20:34 10° SSW 18:24:06 26° W 18:27:42 10° NW
Cosmos 468 Rocket 4.4 18:20:04 10° S 18:24:00 41° SE 18:24:00 41° SE
NOSS 3-2 (A) 3.3 18:19:22 10° SW 18:25:08 89° ESE 18:29:49 20° NE
Cosmos 2084 Rocket 3.3 18:22:53 10° NW 18:27:20 83° NE 18:27:37 77° ESE
ATLAS CENTAUR R/B 4.0 18:26:51 10° N 18:27:18 10° NNE 18:27:18 10° NNE
Meteor 2-1 Rocket 4.0 18:24:50 10° S 18:30:19 73° E 18:35:53 10° NNE
Cosmos 44 3.2 18:27:56 10° SSW 18:32:32 64° SSE 18:32:32 64° SSE
Cosmos 1937 Rocket 3.9 18:32:23 10° NNW 18:36:31 44° NNE 18:36:31 44° NNE
Cosmos 990 Rocket 3.9 18:34:23 10° NNW 18:39:26 66° NE 18:39:26 66° NE
Okean 3 Rocket 4.1 18:35:36 10° N 18:38:58 48° N 18:38:58 48° N
In-Cosmos 22 Rocket 4.1 18:39:26 10° NNW 18:44:52 85° W 18:46:48 42° S
Cosmos 2173 Rocket 4.0 18:42:41 10° N 18:48:57 77° W 18:54:08 15° S
NOSS 3-2 (C) 3.3 18:44:27 10° SW 18:50:13 88° SE 18:51:57 51° NE
Cosmos 1864 Rocket 4.4 18:47:47 10° N 18:53:32 65° ENE 18:53:32 65° ENE
Cosmos 1802 Rocket 4.0 18:48:08 10° N 18:54:36 84° W 18:57:43 33° S
ADEOS Rocket 3.4 18:47:13 10° NNE 18:54:50 63° E 19:01:50 10° S
SPOT 3 Rocket 3.9 18:57:17 54° N 18:57:17 54° N 19:01:21 10° N
Cosmos 2123 Rocket 4.4 19:01:06 48° NNE 19:01:06 48° NNE 19:05:36 10° NNE
Cosmos 2278 Rocket 4.1 18:55:54 10° WSW 19:00:43 28° NW 19:05:33 10° N
Cosmos 2297 3.9 18:57:14 10° SSW 19:02:54 71° WNW 19:04:47 43° N
Cosmos 1725 Rocket 3.9 19:04:12 10° N 19:10:07 80° NNE 19:10:07 80° NNE
H-2A R/B 2.8 19:14:06 47° NNW 19:14:06 47° NNW 19:17:55 10° NNW
Lacrosse 5 3.2 19:14:01 10° WNW 19:18:16 33° WSW 19:18:16 33° WSW
ATLAS 3B R/B 2.6 19:13:39 10° SW 19:19:45 75° SW 19:19:45 75° SW
ARGOS 4.1 19:23:54 42° NNW 19:23:54 42° NNW 19:27:25 10° NNW
Cosmos 1898 Rocket 4.5 19:21:04 10° NNW 19:25:34 45° W 19:25:34 45° W
CENTAUR R/B 2.8 19:23:16 10° SW 19:28:05 60° WSW 19:28:05 60° WSW
SJ 16-02 4.1 19:46:36 10° NW 19:47:34 15° NW 19:47:34 15° NW
